Location: ??????
(56.0120°N, 39.1740°E)
Time: 21:22:14
(UTC+00:00)

USA 59 Rocket - Pass Details

Date: 14 April 2026
Orbit: 367 x 1664 km, 63.3° (Epoch: 13 May)

Event Time Altitude Azimuth Distance (km) Brightness Sun altitude
Rises 18:33:55 0° 305° (NW) 2,283 4.7 -15.6°
Reaches altitude 10° 18:35:48 10° 299° (WNW) 1,487 3.2 -15.8°
Maximum altitude 18:38:53 45° 225° (SW) 647 0.1 -16.0°
Enters shadow 18:40:17 30° 171° (S) 928 0.5 -16.2°
